Location: Eppishofen
(48.4611°N, 10.5989°E)
Time: 00:53:18
(UTC+00:00)

Daily predictions for brighter satellites

Satellite Brightness Start Highest point End
(mag) Time Altitude Azimuth Time Altitude Azimuth Time Altitude Azimuth
Cosmos 292 Rocket 4.4 00:04:41 28° SSE 00:06:44 45° ESE 00:11:19 10° NE
Cosmos 2227 Rocket 2.2 00:05:20 27° SSW 00:08:33 83° WNW 00:14:15 10° NNE
Cosmos 1892 3.6 00:09:05 28° WSW 00:10:06 33° WNW 00:13:21 10° N
Cosmos 990 Rocket 3.9 00:08:24 31° SSW 00:10:54 83° ESE 00:16:04 10° NNE
IDEFIX/ARIANE 42P 4.2 00:06:39 10° NE 00:10:57 25° E 00:14:28 13° SE
Cosmos 332 Rocket 4.1 00:09:47 27° SW 00:12:22 60° WNW 00:17:14 10° NNE
SL-12 R/B(2) 4.4 00:09:27 23° SSW 00:15:02 77° SE 00:24:50 10° NE
CENTAUR R/B 2.4 00:12:18 27° SSW 00:15:37 75° SE 00:22:42 10° NE
CZ-2C R/B 4.3 00:11:33 10° ESE 00:16:09 31° ENE 00:20:49 10° N
CZ-2D R/B 4.0 00:14:23 10° NE 00:18:24 21° E 00:22:21 10° SE
GEOS 3 Rocket 3.7 00:13:24 10° NE 00:18:35 75° NW 00:22:02 21° SW
Meteor 1-21 Rocket 4.2 00:18:17 27° S 00:21:33 88° ESE 00:27:17 10° NNE
H-2A R/B 3.3 00:18:03 10° N 00:21:50 31° WNW 00:24:02 19° WSW
Cosmos 1975 Rocket 3.2 00:21:39 30° SSE 00:23:42 65° E 00:28:04 10° NNE
Cosmos 1538 Rocket 4.0 00:19:16 10° NNW 00:24:24 62° WSW 00:27:12 27° S
SL-4 R/B 3.2 00:23:35 10° W 00:26:25 25° WSW 00:26:25 25° WSW
Cosmos 2297 Rocket 3.4 00:24:23 12° WSW 00:29:01 36° NW 00:34:14 10° NNE
Cosmos 2219 3.1 00:27:36 27° SSW 00:30:49 85° ESE 00:36:29 10° NNE
Cosmos 2341 Rocket 4.2 00:28:16 21° S 00:32:27 66° E 00:38:37 10° NNE
Cosmos 2084 Rocket 4.2 00:29:51 17° WSW 00:32:50 46° NW 00:36:49 10° NNE
Cosmos 1455 Rocket 3.2 00:31:06 10° NNW 00:35:31 62° W 00:37:36 29° SSW
Aureole 1 Rocket 2.7 00:38:34 35° SSW 00:40:03 86° WNW 00:44:28 10° NNE
Cosmos 1825 4.1 00:42:47 13° W 00:44:10 16° WNW 00:46:22 10° NNW
Cosmos 372 Rocket 4.1 00:42:35 25° S 00:45:40 68° ESE 00:50:52 10° NNE
ADEOS II 3.8 00:41:50 10° NE 00:46:04 24° E 00:50:17 10° SSE
Meteor 2-1 Rocket 4.3 00:43:03 10° NNW 00:48:59 81° W 00:53:19 19° S
Cosmos 923 Rocket 3.9 00:47:13 10° NNW 00:52:31 79° WSW 00:56:51 15° SSE
Cosmos 1025 Rocket 4.1 00:50:34 21° WSW 00:52:45 34° WNW 00:56:42 10° N
BREEZE-M DEB (TANK) 2.5 00:54:39 10° WNW 00:58:49 32° SW 00:58:59 32° SSW
Resurs 1-4 Rocket 2.8 00:53:53 10° NNE 00:58:58 47° E 01:03:09 15° S
NOSS 3-2 (A) 3.2 00:56:57 21° SW 01:00:35 86° NW 01:06:54 10° NE
Cosmos 1937 Rocket 3.5 00:58:06 23° SSW 01:01:30 79° ESE 01:06:46 10° NNE
Cosmos 1606 2.4 00:58:36 10° NNW 01:02:11 72° W 01:04:04 26° S
Cosmos 2263 Rocket 2.2 00:58:49 22° SSW 01:02:32 79° WNW 01:08:09 10° NNE
CZ-4C R/B 3.9 01:00:01 10° W 01:04:24 29° NNW 01:09:47 10° NE
Cosmos 1898 Rocket 3.5 01:01:19 22° SSW 01:04:39 75° WNW 01:09:51 10° NNE
NOSS 3-2 (C) 3.6 01:03:08 21° S 01:06:31 53° ESE 01:12:29 10° NE
Cosmos 1821 Rocket 4.5 01:01:26 13° SSE 01:06:46 56° E 01:12:46 10° NNE
Orbus 7S? 2.8 01:04:51 10° NW 01:07:35 89° SW 01:11:46 10° SE
MOZ.5/SAFIR/RUBIN 5/SL-8 3.9 01:05:48 21° S 01:08:45 56° W 01:13:20 10° NNW
Cosmos 2218 Rocket 4.0 01:04:28 19° S 01:09:09 87° WNW 01:15:22 10° N
Helios 1A Rocket 3.9 01:12:04 22° SW 01:13:24 27° W 01:16:42 10° NW
BlueWalker 3 3.4 01:11:16 10° WNW 01:14:48 38° N 01:18:20 10° ENE
Cosmos 2366 rocket 4.0 01:11:40 19° SSW 01:16:25 76° W 01:22:41 10° N
Iridium 921 4.3 01:14:40 23° S 01:16:40 87° W 01:20:09 10° N
Cosmos 1461 2.7 01:14:31 24° SSW 01:16:51 78° SE 01:20:44 10° NE
Cosmos 1844 Rocket 3.8 01:17:43 11° S 01:22:31 35° ESE 01:27:32 10° NE
BREEZE-M DEB (TANK) 2.7 01:25:57 24° S 01:25:57 24° S 01:28:17 10° SSE
MSX 3.8 01:22:47 10° NNE 01:28:34 89° ESE 01:33:23 15° SSW
Cosmos 1680 Rocket 3.8 01:29:45 10° NNW 01:34:44 48° WSW 01:39:25 11° S
ALOS 3.6 01:30:49 10° NNE 01:35:03 35° E 01:39:16 10° SSE
Cosmos 1818 3.9 01:30:53 10° NW 01:36:04 45° WSW 01:41:13 10° S
Cosmos 2112 Rocket 4.1 01:31:52 10° NNW 01:36:55 53° WSW 01:41:56 10° S
SL-16 R/B 3.6 01:34:08 10° NW 01:38:18 21° W 01:41:09 15° SW
SL-16 R/B 2.9 01:32:07 10° SSE 01:38:19 71° ENE 01:44:33 10° NNW
Cosmos 1603 3.7 01:37:52 10° NNW 01:43:40 84° WSW 01:49:23 10° SSE
USA 234 4.0 01:40:46 10° E 01:47:10 58° NNE 01:53:34 10° NW
COSMOS 2441 4.4 01:43:09 10° NNE 01:47:59 88° WNW 01:52:26 12° SSW
Meteor 1-28 Rocket 3.1 01:45:06 10° SSE 01:48:38 78° ENE 01:52:12 10° N
IDEFIX/ARIANE 42P 3.0 01:45:39 10° N 01:50:44 52° WNW 01:55:13 13° SW
Cosmos 2228 3.8 01:48:37 10° NNW 01:52:33 35° W 01:55:49 14° SSW
Cosmos 2227 Rocket 4.2 01:49:24 10° W 01:53:29 20° NW 01:57:36 10° N
Cosmos 1943 3.5 01:48:23 10° NW 01:53:45 47° WSW 01:59:04 10° S
CZ-2C R/B 3.2 01:50:25 10° N 01:55:55 75° WNW 02:00:50 11° SSW
CZ-2C R/B 3.1 01:51:20 11° S 01:56:13 44° W 02:01:23 10° NNW
Cosmos 1437 Rocket 2.7 01:53:28 14° SSW 01:56:45 70° WNW 02:00:32 10° N
CZ-2D R/B 2.3 01:53:33 10° N 01:58:51 62° WNW 02:03:47 11° SSW
FENGYUN 3A 3.7 01:55:49 10° NNE 02:01:14 86° WNW 02:06:37 10° SSW
Cosmos 1727 Rocket 4.3 01:58:25 10° NNW 02:04:33 53° W 02:10:40 10° SSW
CENTAUR R/B 3.9 02:01:15 10° W 02:06:58 37° NNW 02:13:56 10° NE
H-2A R/B 4.5 02:05:04 10° N 02:08:36 31° WNW 02:12:02 10° SW
Envisat 4.2 02:05:28 10° NNE 02:10:14 39° E 02:14:59 10° SSE
Cosmos 1048 Rocket 4.0 02:06:35 10° NNW 02:11:48 79° WSW 02:17:04 10° SSE
USA 238 DEB 3.6 02:06:34 11° SW 02:12:36 81° SE 02:19:24 10° NE
USA 238 3.6 02:06:36 11° SSW 02:12:39 80° SE 02:19:27 10° NE
ASTEX 1 3.5 02:15:51 10° S 02:20:38 57° W 02:25:27 10° NNW
Cosmos 1606 Rocket 4.0 02:18:20 10° NNW 02:22:37 46° W 02:26:50 10° SSW
Cosmos 1125 Rocket 4.0 02:18:14 10° S 02:23:23 59° ESE 02:28:36 10° NNE
Cosmos 1867 3.7 02:18:47 10° SW 02:24:15 86° NW 02:29:46 10° NE
CZ-2C R/B 3.8 02:20:21 10° NNE 02:24:29 32° E 02:28:35 10° SSE
IRAS Rocket 4.4 02:19:23 10° NNE 02:24:54 76° ESE 02:30:23 10° SSW
Cosmos 921 Rocket 3.4 02:21:07 10° NNW 02:25:07 41° WSW 02:29:03 10° S
ADEOS II 2.4 02:20:53 10° N 02:25:59 53° WNW 02:31:04 10° SW
Alouette 2 Rocket 3.6 02:23:28 10° S 02:28:09 80° ESE 02:31:49 10° NNE
BREEZE-M DEB (TANK) 4.3 02:22:23 10° SSW 02:28:14 24° SSE 02:30:56 10° E
Cosmos 494 Rocket 4.4 02:23:42 10° NW 02:28:36 42° WSW 02:33:31 10° S
Cosmos 1833 Rocket 4.4 02:26:12 10° NNW 02:31:29 39° NE 02:36:44 10° ESE
Cosmos 1844 3.8 02:28:31 10° SSW 02:34:18 81° WNW 02:40:08 10° NNE
